Novato, CA

8:54 AM PST on November 12, 2019 (GMT -0800)
Gnoss

Weather History for KDVO - September, 2019

Change the Weather History Date:

Sunday, September 1, 2019

  Actual Average (KAPC) Record (KAPC)
Temperature  
Mean Temperature 73 °F -  
Max Temperature 93 °F 84 °F 106 °F (2017)
Min Temperature 53 °F 54 °F 45 °F (1999)
Cooling Degree Days 8    
Growing Degree Days 23 (Base 50)    
Moisture  
Dew Point 55 °F    
Average Humidity 60    
Maximum Humidity 94    
Minimum Humidity 28    
Precipitation  
Precipitation 0.00 in - - ()
Sea Level Pressure  
Sea Level Pressure 29.90 in    
Wind  
Wind Speed 2 mph ()    
Max Wind Speed 14 mph    
Max Gust Speed 20 mph    
Visibility 9.3 miles    
Events      
Averages and records for this station are not official NWS values.
T = Trace of Precipitation, MM = Missing Value Source: Averaged Metar Reports

Daily Weather History Graph

Daily Weather History Graph

Search for Another Location

Airport or City:

Astronomy

Sep. 01, 2019 Rise Set
Actual Time 6:39 AM PDT 7:39 PM PDT
Civil Twilight 6:12 AM PDT 8:06 PM PDT
Nautical Twilight 5:40 AM PDT 8:38 PM PDT
Astronomical Twilight 5:07 AM PDT 9:12 PM PDT
Moon 9:14 AM PDT (9/1) 9:33 PM PDT (9/1)
Length of Visible Light 13h 54m
Length of Day
13h 00m
Waxing Crescent, 8% of the Moon is Illuminated
Sep 1
Waxing Crescent
Sep 5
First Quarter
Sep 13
Full
Sep 21
Last Quarter
Sep 28
New

Hourly Weather History & Observations

Time (PDT) Temp. Heat Index Dew Point Humidity Pressure Visibility Wind Dir Wind Speed Gust Speed Precip Events Conditions
12:15 AM 64.4 °F - 55.4 °F 73% 29.89 in 10.0 mi Calm Calm - N/A   Clear
12:35 AM 62.6 °F - 55.4 °F 77% 29.89 in 10.0 mi Calm Calm - N/A   Clear
12:55 AM 64.4 °F - 53.6 °F 68% 29.90 in 10.0 mi North - - N/A   Clear
1:15 AM 64.4 °F - 55.4 °F 73% 29.90 in 10.0 mi North - - N/A   Clear
1:35 AM 62.6 °F - 55.4 °F 77% 29.90 in 10.0 mi Calm Calm - N/A   Clear
1:55 AM 62.6 °F - 53.6 °F 72% 29.90 in 10.0 mi Calm Calm - N/A   Clear
2:15 AM 59.0 °F - 53.6 °F 82% 29.90 in 10.0 mi Calm Calm - N/A   Clear
2:35 AM 57.2 °F - 51.8 °F 82% 29.90 in 10.0 mi Calm Calm - N/A   Clear
2:55 AM 59.0 °F - 53.6 °F 82% 29.90 in 10.0 mi Calm Calm - N/A   Clear
3:15 AM 57.2 °F - 53.6 °F 88% 29.90 in 10.0 mi Calm Calm - N/A   Clear
3:35 AM 59.0 °F - 53.6 °F 82% 29.90 in 10.0 mi Calm Calm - N/A   Clear
3:55 AM 59.0 °F - 55.4 °F 88% 29.90 in 10.0 mi Calm Calm - N/A   Clear
4:15 AM 59.0 °F - 55.4 °F 88% 29.90 in 10.0 mi Calm Calm - N/A   Clear
4:35 AM 55.4 °F - 51.8 °F 88% 29.90 in 10.0 mi Calm Calm - N/A   Clear
4:55 AM 57.2 °F - 53.6 °F 88% 29.91 in 10.0 mi Calm Calm - N/A   Clear
5:15 AM 57.2 °F - 53.6 °F 88% 29.91 in 10.0 mi Calm Calm - N/A   Clear
5:35 AM 57.2 °F - 51.8 °F 82% 29.91 in 10.0 mi Calm Calm - N/A   Clear
5:55 AM 53.6 °F - 51.8 °F 94% 29.91 in 10.0 mi Calm Calm - N/A   Clear
6:15 AM 55.4 °F - 51.8 °F 88% 29.91 in 10.0 mi Calm Calm - N/A   Clear
6:35 AM 57.2 °F - 55.4 °F 94% 29.92 in 10.0 mi Calm Calm - N/A   Clear
6:55 AM 57.2 °F - 55.4 °F 94% 29.93 in 10.0 mi Calm Calm - N/A   Clear
7:15 AM 55.4 °F - 53.6 °F 94% 29.93 in 10.0 mi Calm Calm - N/A   Clear
7:35 AM 60.8 °F - 57.2 °F 88% 29.94 in 10.0 mi Calm Calm - N/A   Clear
7:55 AM 60.8 °F - 57.2 °F 88% 29.94 in 10.0 mi Calm Calm - N/A   Clear
8:15 AM 64.4 °F - 59.0 °F 83% 29.94 in 10.0 mi Calm Calm - N/A   Clear
8:35 AM 66.2 °F - 59.0 °F 78% 29.94 in 10.0 mi Calm Calm - N/A   Clear
8:55 AM 68.0 °F - 59.0 °F 73% 29.94 in 10.0 mi Calm Calm - N/A   Clear
9:15 AM 69.8 °F - 59.0 °F 68% 29.94 in 10.0 mi Calm Calm - N/A   Clear
9:35 AM 71.6 °F - 59.0 °F 64% 29.94 in 10.0 mi Calm Calm - N/A   Clear
9:55 AM 73.4 °F - 60.8 °F 65% 29.94 in 10.0 mi Calm Calm - N/A   Clear
10:15 AM 77.0 °F - 60.8 °F 57% 29.94 in 10.0 mi Calm Calm - N/A   Clear
10:35 AM 77.0 °F - 59.0 °F 54% 29.93 in 10.0 mi Calm Calm - N/A   Clear
10:55 AM 80.6 °F 81.5 °F 60.8 °F 51% 29.94 in 10.0 mi Calm Calm - N/A   Clear
11:15 AM 82.4 °F 82.9 °F 60.8 °F 48% 29.93 in 10.0 mi Calm Calm - N/A   Clear
11:35 AM 82.4 °F 82.9 °F 60.8 °F 48% 29.93 in 5.0 mi Calm Calm - N/A   Haze
11:55 AM 86.0 °F 86.1 °F 60.8 °F 43% 29.92 in 5.0 mi Variable 3.5 mph - N/A   Haze
12:15 PM 84.2 °F 85.0 °F 62.6 °F 48% 29.92 in 6.0 mi Variable 6.9 mph - N/A   Haze
12:35 PM 86.0 °F 86.6 °F 62.6 °F 45% 29.91 in 3.0 mi Variable 6.9 mph - N/A   Haze
12:55 PM 87.8 °F 88.5 °F 62.6 °F 43% 29.91 in 5.0 mi Variable 6.9 mph 12.7 mph N/A   Haze
1:15 PM 89.6 °F 90.1 °F 62.6 °F 40% 29.90 in 5.0 mi Variable 5.8 mph - N/A   Haze
1:35 PM 89.6 °F 89.5 °F 60.8 °F 38% 29.90 in 5.0 mi Variable 4.6 mph - N/A   Haze
1:55 PM 91.4 °F 92.1 °F 62.6 °F 38% 29.90 in 3.0 mi Calm Calm - N/A   Haze
2:15 PM 91.4 °F 89.9 °F 57.2 °F 31% 29.89 in 3.0 mi NNE 10.4 mph - N/A   Haze
2:35 PM 93.2 °F 91.3 °F 55.4 °F 28% 29.89 in 9.0 mi Variable 4.6 mph 12.7 mph N/A   Clear
2:55 PM 93.2 °F 91.3 °F 55.4 °F 28% 29.88 in 9.0 mi WSW 13.8 mph 19.6 mph N/A   Clear
3:15 PM 91.4 °F 89.4 °F 55.4 °F 29% 29.88 in 10.0 mi WSW 11.5 mph - N/A   Clear
3:35 PM 91.4 °F 89.4 °F 55.4 °F 29% 29.87 in 10.0 mi SW 13.8 mph - N/A   Clear
3:55 PM 89.6 °F 87.3 °F 53.6 °F 29% 29.87 in 10.0 mi SW 11.5 mph - N/A   Clear
4:15 PM 89.6 °F 87.3 °F 53.6 °F 29% 29.87 in 10.0 mi WSW 10.4 mph - N/A   Clear
4:35 PM 87.8 °F 86.5 °F 57.2 °F 35% 29.87 in 10.0 mi SW 11.5 mph - N/A   Clear
4:55 PM 86.0 °F 84.5 °F 55.4 °F 35% 29.87 in 10.0 mi South 8.1 mph - N/A   Clear
5:15 PM 86.0 °F 84.5 °F 55.4 °F 35% 29.87 in 10.0 mi SW 10.4 mph - N/A   Clear
5:35 PM 86.0 °F 84.2 °F 53.6 °F 33% 29.86 in 10.0 mi SW 9.2 mph - N/A   Clear
5:55 PM 84.2 °F 82.8 °F 53.6 °F 35% 29.86 in 10.0 mi Variable 4.6 mph 15.0 mph N/A   Clear
6:15 PM 84.2 °F - 51.8 °F 33% 29.86 in 10.0 mi South 5.8 mph - N/A   Clear
6:35 PM 82.4 °F - 51.8 °F 35% 29.86 in 10.0 mi Variable 4.6 mph - N/A   Clear
6:55 PM 82.4 °F - 50.0 °F 32% 29.85 in 10.0 mi Calm Calm - N/A   Clear
7:15 PM 80.6 °F - 48.2 °F 32% 29.85 in 10.0 mi SSE 3.5 mph - N/A   Clear
7:35 PM 77.0 °F - 50.0 °F 39% 29.85 in 10.0 mi East 6.9 mph - N/A   Clear
7:55 PM 75.2 °F - 50.0 °F 41% 29.85 in 10.0 mi ENE 5.8 mph - N/A   Clear
8:15 PM 73.4 °F - 50.0 °F 44% 29.86 in 10.0 mi ENE 4.6 mph - N/A   Clear
8:35 PM 73.4 °F - 50.0 °F 44% 29.86 in 10.0 mi East 5.8 mph - N/A   Clear
8:55 PM 71.6 °F - 51.8 °F 50% 29.87 in 10.0 mi East 4.6 mph - N/A   Clear
9:15 PM 68.0 °F - 51.8 °F 56% 29.87 in 10.0 mi Calm Calm - N/A   Clear
9:35 PM 66.2 °F - 53.6 °F 64% 29.88 in 10.0 mi Calm Calm - N/A   Clear
9:55 PM 64.4 °F - 53.6 °F 68% 29.96 in 10.0 mi North 5.8 mph - N/A   Clear
10:15 PM 66.2 °F - 53.6 °F 64% 29.89 in 10.0 mi Calm Calm - N/A   Clear
10:35 PM 66.2 °F - 53.6 °F 64% 29.90 in 10.0 mi NNW 4.6 mph - N/A   Clear
10:55 PM 64.4 °F - 53.6 °F 68% 29.90 in 10.0 mi Calm Calm - N/A   Clear
11:15 PM 64.4 °F - 53.6 °F 68% 29.90 in 10.0 mi Calm Calm - N/A   Clear
11:35 PM 64.4 °F - 53.6 °F 68% 29.90 in 10.0 mi Calm Calm - N/A   Clear
11:55 PM 64.4 °F - 53.6 °F 68% 29.90 in 10.0 mi Calm Calm - N/A   Clear